Date String (YYYY-MM-DD hh:mm:ss) UTC,Instrument flags,Ambient pressure (hPa),Sample flow (lpm),Bypass flow (lpm),Sample temperature (°C),Ambient temperature (°C),ASC tube jacket temperature (°C),LED temperature (°C),Box temperature (°C),Sample RH (%),Span deviation,Mass concentration (μg/m³),Mass concentration (μg/m³),Mass concentration (μg/m³)
DateTimeUTC,F1_M11,P_M11,Q1_M11,Q2_M11,T1_M11,T2_M11,T3_M11,T4_M11,T5_M11,U1_M11,ZSPAN_M11,X0_M11,X2_M11,X1_M11
2022-07-13 12:00:00,,0829.3,5.00,0.00,29.8,27.9,00.0,38.7,31.6,23.9,0000.0,0016.28,0006.45,0005.03
2022-07-13 12:01:00,,0829.3,5.00,0.00,29.8,28.1,00.0,38.7,31.6,23.8,0000.0,0015.45,0006.45,0005.03
2022-07-13 12:02:00,,0829.3,5.00,0.00,29.8,28.2,00.0,38.7,31.6,24.0,0000.0,0015.61,0006.45,0005.00
2022-07-13 12:03:00,,0829.2,5.01,0.00,29.8,28.3,00.0,38.7,31.6,23.9,0000.0,0015.70,0006.53,0004.98
2022-07-13 12:04:00,,0829.2,5.01,0.00,29.8,28.3,00.0,38.7,31.6,23.8,0000.0,0015.05,0006.52,0004.97
2022-07-13 12:05:00,,0829.3,4.99,0.00,29.8,28.4,00.0,38.6,31.6,23.6,0000.0,0015.93,0006.55,0004.98
2022-07-13 12:06:00,,0829.3,5.01,0.00,29.8,28.5,00.0,38.6,31.6,23.5,0000.0,0017.71,0006.52,0004.97
2022-07-13 12:07:00,,0829.2,4.99,0.00,29.8,28.5,00.0,38.6,31.6,23.6,0000.0,0018.42,0006.50,0004.96
2022-07-13 12:08:00,,0829.3,5.00,0.00,29.8,28.5,00.0,38.6,31.6,23.7,0000.0,0018.68,0006.48,0004.94
2022-07-13 12:09:00,,0829.3,5.00,0.00,29.8,28.6,00.0,38.6,31.6,23.8,0000.0,0018.82,0006.49,0004.94
2022-07-13 12:10:00,,0829.2,4.99,0.00,29.8,28.6,00.0,38.6,31.6,23.4,0000.0,0018.89,0006.53,0004.95
2022-07-13 12:11:00,,0829.3,5.01,0.00,29.8,28.6,00.0,38.6,31.6,23.3,0000.0,0018.10,0006.48,0004.95
2022-07-13 12:12:00,,0829.1,5.00,0.00,29.8,28.6,00.0,38.6,31.6,23.4,0000.0,0017.67,0006.46,0004.96
2022-07-13 12:13:00,,0829.1,5.00,0.00,29.8,28.6,00.0,38.6,31.6,23.8,0000.0,0018.68,0006.40,0004.95
2022-07-13 12:14:00,,0829.1,5.01,0.00,29.8,28.7,00.0,38.6,31.6,23.9,0000.0,0019.98,0006.30,0004.94
2022-07-13 12:15:00,,0829.1,5.00,0.00,29.8,28.7,00.0,38.6,31.6,23.4,0000.0,0020.37,0006.28,0004.93
2022-07-13 12:16:00,,0829.2,4.99,0.00,29.8,28.7,00.0,38.6,31.6,22.8,0000.0,0020.44,0006.28,0004.94
2022-07-13 12:17:00,,0829.3,5.01,0.00,29.8,28.7,00.0,38.6,31.6,22.8,0000.0,0019.24,0006.24,0004.94
2022-07-13 12:18:00,,0829.2,4.99,0.00,29.8,28.7,00.0,38.6,31.7,22.8,0000.0,0018.68,0006.24,0004.94
2022-07-13 12:19:00,,0829.3,5.00,0.00,29.8,28.8,00.0,38.6,31.7,23.0,0000.0,0018.31,0006.21,0004.96
2022-07-13 12:20:00,,0829.3,5.01,0.00,29.8,28.8,00.0,38.6,31.7,22.3,0000.0,0018.84,0006.15,0004.97
2022-07-13 12:21:00,,0829.2,5.00,0.00,29.8,28.8,00.0,38.6,31.7,21.9,0000.0,0018.58,0006.15,0004.99
2022-07-13 12:22:00,,0829.2,5.02,0.00,29.9,28.8,00.0,38.6,31.7,22.1,0000.0,0018.55,0006.16,0005.01
2022-07-13 12:23:00,,0829.2,5.00,0.00,29.9,28.8,00.0,38.7,31.7,21.7,0000.0,0018.45,0006.09,0005.01
2022-07-13 12:24:00,,0829.2,5.00,0.00,29.9,28.8,00.0,38.7,31.7,21.2,0000.0,0017.41,0006.10,0005.04
2022-07-13 12:25:00,,0829.3,5.01,0.00,29.9,28.8,00.0,38.7,31.7,20.9,0000.0,0015.73,0006.12,0005.08
2022-07-13 12:26:00,,0829.3,4.99,0.00,29.9,28.8,00.0,38.7,31.7,21.1,0000.0,0016.20,0006.12,0005.12
2022-07-13 12:27:00,,0829.2,5.01,0.00,29.9,28.9,00.0,38.7,31.7,20.9,0000.0,0015.61,0006.05,0005.13
2022-07-13 12:28:00,,0829.3,5.01,0.00,29.9,28.9,00.0,38.7,31.8,20.7,0000.0,0014.72,0006.05,0005.14
2022-07-13 12:29:00,,0829.2,5.00,0.00,29.9,28.9,00.0,38.7,31.8,20.8,0000.0,0015.03,0006.03,0005.19
2022-07-13 12:30:00,,0829.2,4.99,0.00,29.9,28.9,00.0,38.7,31.8,21.1,0000.0,0015.04,0006.06,0005.20
2022-07-13 12:31:00,,0829.2,5.01,0.00,30.0,29.0,00.0,38.7,31.9,21.1,0000.0,0014.29,0006.10,0005.22
2022-07-13 12:32:00,,0829.2,4.99,0.00,30.0,29.0,00.0,38.7,31.9,21.0,0000.0,0014.33,0006.10,0005.22
2022-07-13 12:33:00,,0829.1,5.00,0.00,30.0,29.0,00.0,38.7,31.9,21.3,0000.0,0014.48,0006.11,0005.21
2022-07-13 12:34:00,,0829.1,5.00,0.00,30.0,29.0,00.0,38.8,31.9,21.4,0000.0,0014.50,0006.17,0005.22
2022-07-13 12:35:00,,0829.1,5.00,0.00,30.0,29.1,00.0,38.8,31.9,20.5,0000.0,0014.53,0006.23,0005.22
2022-07-13 12:36:00,,0829.1,5.00,0.00,30.1,29.1,00.0,38.8,32.0,20.3,0000.0,0014.59,0006.25,0005.22
2022-07-13 12:37:00,,0829.0,5.01,0.00,30.1,29.1,00.0,38.8,32.0,20.1,0000.0,0014.14,0006.22,0005.21
2022-07-13 12:38:00,,0829.1,5.00,0.00,30.1,29.1,00.0,38.8,32.0,20.0,0000.0,0013.96,0006.23,0005.20
2022-07-13 12:39:00,,0829.1,4.99,0.00,30.1,29.1,00.0,38.8,32.0,20.1,0000.0,0013.90,0006.25,0005.20
2022-07-13 12:40:00,,0829.2,5.00,0.00,30.1,29.1,00.0,38.9,32.0,20.1,0000.0,0013.47,0006.27,0005.17
2022-07-13 12:41:00,,0829.2,5.01,0.00,30.2,29.2,00.0,38.9,32.1,19.5,0000.0,0013.44,0006.28,0005.17
2022-07-13 12:42:00,,0829.2,4.99,0.00,30.2,29.2,00.0,38.9,32.0,19.2,0000.0,0013.13,0006.26,0005.18
2022-07-13 12:43:00,,0829.2,5.01,0.00,30.2,29.2,00.0,38.9,32.1,19.5,0000.0,0013.15,0006.23,0005.18
2022-07-13 12:44:00,,0829.1,4.99,0.00,30.2,29.2,00.0,38.9,32.1,19.5,0000.0,0012.98,0006.21,0005.20
2022-07-13 12:45:00,,0829.1,5.01,0.00,30.2,29.2,00.0,38.9,32.1,19.4,0000.0,0012.79,0006.19,0005.20
2022-07-13 12:46:00,,0829.1,5.00,0.00,30.3,29.2,00.0,39.0,32.1,20.0,0000.0,0012.22,0006.08,0005.19
2022-07-13 12:47:00,,0829.1,4.99,0.00,30.3,29.2,00.0,39.0,32.1,19.5,0000.0,0011.86,0006.03,0005.18
2022-07-13 12:48:00,,0829.2,5.01,0.00,30.3,29.3,00.0,39.0,32.1,19.8,0000.0,0011.93,0006.09,0005.19
2022-07-13 12:49:00,,0829.2,5.01,0.00,30.3,28.9,00.0,39.0,32.1,20.1,0000.0,0011.78,0006.13,0005.19
2022-07-13 12:50:00,,0829.2,5.00,0.00,30.3,28.2,00.0,38.9,32.0,22.3,0000.0,0011.78,0006.14,0005.17
2022-07-13 12:51:00,,0829.1,4.99,0.00,30.2,27.9,00.0,38.9,31.9,21.5,0000.0,0011.60,0006.09,0005.17
2022-07-13 12:52:00,,0829.1,5.01,0.00,30.1,27.9,00.0,38.9,31.8,20.3,0000.0,0011.42,0006.01,0005.15
2022-07-13 12:53:00,,0829.2,5.00,0.00,30.1,28.0,00.0,38.9,31.8,20.7,0000.0,0011.74,0005.99,0005.13
2022-07-13 12:54:00,,0829.2,4.99,0.00,30.0,28.1,00.0,38.9,31.7,20.5,0000.0,0012.72,0006.02,0005.12
2022-07-13 12:55:00,,0829.2,5.00,0.00,30.0,28.2,00.0,38.9,31.7,22.0,0000.0,0012.80,0005.99,0005.11
2022-07-13 12:56:00,,0829.2,4.99,0.00,30.0,28.3,00.0,38.9,31.7,21.4,0000.0,0012.65,0005.98,0005.09
2022-07-13 12:57:00,,0829.2,5.00,0.00,30.0,28.4,00.0,38.9,31.7,21.3,0000.0,0012.99,0005.99,0005.08
2022-07-13 12:58:00,,0829.2,5.01,0.00,30.0,28.5,00.0,38.9,31.8,21.0,0000.0,0013.45,0005.98,0005.07
2022-07-13 12:59:00,,0829.2,4.99,0.00,30.0,28.6,00.0,38.8,31.9,21.1,0000.0,0013.01,0005.93,0005.05
